Weather History for KTTF - July, 2014

Change the Weather History Date:

Friday, July 11, 2014

  Actual Average Record
Temperature  
Mean Temperature 68 °F -  
Max Temperature 78 °F 85 °F 101 °F (1936)
Min Temperature 57 °F 63 °F 43 °F (1945)
Cooling Degree Days 2    
Growing Degree Days 18 (Base 50)    
Moisture  
Dew Point 58 °F    
Average Humidity 69    
Maximum Humidity 94    
Minimum Humidity 42    
Precipitation  
Precipitation 0.00 in - - ()
Sea Level Pressure  
Sea Level Pressure 30.19 in    
Wind  
Wind Speed 3 mph (ESE)    
Max Wind Speed 9 mph    
Max Gust Speed -    
Visibility 9 miles    
Events      
Averages and records for this station are not official NWS values.
T = Trace of Precipitation, MM = Missing Value Source: NWS Daily Summary

Daily Weather History Graph

Daily Weather History Graph

Search for Another Location

Airport or City:

Trip Planner

Search our weather history database for the weather conditions in past years. The results will help you decide how hot, cold, wet, or windy it might be!

Date:

Astronomy

Jul. 11, 2014 Rise Set
Actual Time 6:08 AM EDT 9:09 PM EDT
Civil Twilight 5:34 AM EDT 9:43 PM EDT
Nautical Twilight 4:52 AM EDT 10:25 PM EDT
Astronomical Twilight 4:01 AM EDT 11:16 PM EDT
Moon 8:17 PM EDT (7/11) 5:20 AM EDT (7/11)
Length of Visible Light 16h 08m
Length of Day
15h 01m
Waxing Gibbous, 99% of the Moon is Illuminated
Jul 11
Waxing Gibbous
Jul 12
Full
Jul 18
Last Quarter
Jul 26
New
Aug 3
First Quarter

Hourly Weather History & Observations

Time (EDT) Temp. Dew Point Humidity Pressure Visibility Wind Dir Wind Speed Gust Speed Precip Events Conditions
12:12 AM 60.8 °F 57.2 °F 88% 30.18 in 10.0 mi Calm Calm - N/A   Clear
12:32 AM 60.8 °F 57.2 °F 88% 30.18 in 10.0 mi Calm Calm - N/A   Clear
1:12 AM 57.2 °F 55.4 °F 94% 30.19 in 10.0 mi Calm Calm - N/A   Clear
1:32 AM 59.0 °F 57.2 °F 94% 30.19 in 10.0 mi North 3.5 mph - N/A   Clear
1:52 AM 59.0 °F 57.2 °F 94% 30.19 in 10.0 mi Calm Calm - N/A   Clear
2:12 AM 57.2 °F 55.4 °F 94% 30.19 in 10.0 mi Calm Calm - N/A   Clear
2:32 AM 60.8 °F 57.2 °F 88% 30.19 in 10.0 mi NE 3.5 mph - N/A   Clear
2:52 AM 60.8 °F 57.2 °F 88% 30.19 in 10.0 mi NE 3.5 mph - N/A   Clear
3:12 AM 60.8 °F 57.2 °F 88% 30.19 in 10.0 mi Calm Calm - N/A   Clear
3:33 AM 60.8 °F 59.0 °F 94% 30.19 in 10.0 mi Calm Calm - N/A   Clear
3:53 AM 60.8 °F 57.2 °F 88% 30.19 in 10.0 mi Calm Calm - N/A   Clear
4:13 AM 60.8 °F 57.2 °F 88% 30.19 in 7.0 mi Calm Calm - N/A   Clear
4:33 AM 59.0 °F 57.2 °F 94% 30.20 in 7.0 mi Calm Calm - N/A   Clear
4:53 AM 59.0 °F 57.2 °F 94% 30.20 in 5.0 mi North 3.5 mph - N/A   Clear
5:13 AM 59.0 °F 57.2 °F 94% 30.20 in 5.0 mi Calm Calm - N/A   Clear
5:33 AM 59.0 °F 57.2 °F 94% 30.20 in 5.0 mi Calm Calm - N/A   Clear
5:53 AM 59.0 °F 57.2 °F 94% 30.20 in 5.0 mi Calm Calm - N/A   Clear
6:13 AM 59.0 °F 57.2 °F 94% 30.21 in 5.0 mi Calm Calm - N/A   Clear
6:33 AM 59.0 °F 57.2 °F 94% 30.21 in 4.0 mi Calm Calm - N/A   Clear
6:54 AM 60.8 °F 57.2 °F 88% 30.21 in 5.0 mi Calm Calm - N/A   Clear
7:14 AM 60.8 °F 59.0 °F 94% 30.22 in 7.0 mi Calm Calm - N/A   Clear
7:34 AM 62.6 °F 59.0 °F 88% 30.22 in 7.0 mi Calm Calm - N/A   Clear
7:54 AM 64.4 °F 60.8 °F 88% 30.22 in 10.0 mi Calm Calm - N/A   Clear
8:14 AM 64.4 °F 60.8 °F 88% 30.22 in 10.0 mi Calm Calm - N/A   Clear
8:34 AM 66.2 °F 60.8 °F 83% 30.22 in 10.0 mi ENE 3.5 mph - N/A   Clear
8:54 AM 69.8 °F 60.8 °F 73% 30.23 in 10.0 mi East 3.5 mph - N/A   Clear
9:14 AM 69.8 °F 60.8 °F 73% 30.22 in 10.0 mi East 4.6 mph - N/A   Clear
9:34 AM 71.6 °F 60.8 °F 69% 30.22 in 10.0 mi East 3.5 mph - N/A   Clear
9:54 AM 73.4 °F 57.2 °F 57% 30.23 in 10.0 mi SSE 4.6 mph - N/A   Clear
10:10 AM 73.4 °F 57.2 °F 57% 30.22 in 10.0 mi SE 4.6 mph - N/A   Clear
10:30 AM 73.4 °F 55.4 °F 53% 30.23 in 10.0 mi East 4.6 mph - N/A   Clear
10:50 AM 73.4 °F 55.4 °F 53% 30.23 in 10.0 mi Calm Calm - N/A   Clear
11:10 AM 75.2 °F 57.2 °F 53% 30.23 in 10.0 mi ESE 6.9 mph - N/A   Clear
11:30 AM 75.2 °F 57.2 °F 53% 30.23 in 10.0 mi East 5.8 mph - N/A   Clear
11:50 AM 75.2 °F 57.2 °F 53% 30.24 in 10.0 mi ESE 3.5 mph - N/A   Clear
12:10 PM 77.0 °F 57.2 °F 50% 30.24 in 10.0 mi East 5.8 mph - N/A   Clear
12:30 PM 77.0 °F 57.2 °F 50% 30.23 in 10.0 mi ESE 6.9 mph - N/A   Clear
12:51 PM 77.0 °F 57.2 °F 50% 30.22 in 10.0 mi East 8.1 mph - N/A   Clear
1:11 PM 77.0 °F 55.4 °F 47% 30.22 in 10.0 mi East 6.9 mph - N/A   Clear
1:31 PM 77.0 °F 55.4 °F 47% 30.22 in 10.0 mi East 8.1 mph - N/A   Clear
1:51 PM 78.8 °F 55.4 °F 44% 30.21 in 10.0 mi ESE 8.1 mph - N/A   Clear
2:11 PM 78.8 °F 55.4 °F 44% 30.21 in 10.0 mi SSE 6.9 mph - N/A   Clear
2:31 PM 78.8 °F 53.6 °F 42% 30.21 in 10.0 mi SE 6.9 mph - N/A   Clear
2:51 PM 78.8 °F 55.4 °F 44% 30.20 in 10.0 mi SE 6.9 mph - N/A   Clear
3:11 PM 78.8 °F 55.4 °F 44% 30.21 in 10.0 mi ESE 8.1 mph - N/A   Clear
3:31 PM 78.8 °F 55.4 °F 44% 30.20 in 10.0 mi ESE 9.2 mph - N/A   Clear
3:51 PM 78.8 °F 55.4 °F 44% 30.19 in 10.0 mi ESE 8.1 mph - N/A   Clear
4:32 PM 77.0 °F 55.4 °F 47% 30.18 in 10.0 mi ESE 9.2 mph - N/A   Clear
4:52 PM 77.0 °F 55.4 °F 47% 30.18 in 10.0 mi ESE 9.2 mph - N/A   Clear
5:12 PM 77.0 °F 55.4 °F 47% 30.17 in 10.0 mi ESE 8.1 mph - N/A   Clear
5:32 PM 77.0 °F 57.2 °F 50% 30.17 in 10.0 mi SE 6.9 mph - N/A   Clear
5:52 PM 75.2 °F 57.2 °F 53% 30.16 in 10.0 mi ESE 4.6 mph - N/A   Clear
6:12 PM 78.8 °F 55.4 °F 44% 30.15 in 10.0 mi East 8.1 mph - N/A   Clear
6:33 PM 75.2 °F 55.4 °F 50% 30.15 in 10.0 mi ESE 4.6 mph - N/A   Clear
6:53 PM 75.2 °F 57.2 °F 53% 30.15 in 10.0 mi SE 4.6 mph - N/A   Clear
7:13 PM 75.2 °F 57.2 °F 53% 30.15 in 10.0 mi ESE 6.9 mph - N/A   Clear
7:33 PM 73.4 °F 57.2 °F 57% 30.15 in 10.0 mi ESE 3.5 mph - N/A   Clear
7:53 PM 73.4 °F 57.2 °F 57% 30.15 in 10.0 mi ESE 6.9 mph - N/A   Clear
8:13 PM 73.4 °F 57.2 °F 57% 30.15 in 10.0 mi ESE 5.8 mph - N/A   Clear
8:33 PM 73.4 °F 60.8 °F 65% 30.15 in 10.0 mi ESE 4.6 mph - N/A   Clear
8:53 PM 71.6 °F 60.8 °F 69% 30.15 in 10.0 mi Calm Calm - N/A   Clear
9:13 PM 71.6 °F 60.8 °F 69% 30.15 in 10.0 mi ESE 3.5 mph - N/A   Clear
9:33 PM 71.6 °F 60.8 °F 69% 30.16 in 10.0 mi SE 3.5 mph - N/A   Clear
9:53 PM 71.6 °F 60.8 °F 69% 30.16 in 10.0 mi SE 4.6 mph - N/A   Clear
10:14 PM 71.6 °F 60.8 °F 69% 30.16 in 10.0 mi SE 4.6 mph - N/A   Clear
10:34 PM 71.6 °F 60.8 °F 69% 30.16 in 10.0 mi SE 3.5 mph - N/A   Clear
10:54 PM 71.6 °F 60.8 °F 69% 30.16 in 10.0 mi SE 4.6 mph - N/A   Clear
11:14 PM 71.6 °F 60.8 °F 69% 30.16 in 10.0 mi SE 3.5 mph - N/A   Clear
11:34 PM 69.8 °F 60.8 °F 73% 30.17 in 10.0 mi SSE 4.6 mph - N/A   Clear
11:54 PM 69.8 °F 60.8 °F 73% 30.17 in 10.0 mi Calm Calm - N/A   Clear